RH
9 12 21 11 7 7 21 16 21 27 26 25 25 30 34 37 36 33 34 30 30 32 33 34 30 29 29 27 24 21 19 23 28 24 22 23 22 21 21 22 30 20 27 20
17 10 12 20 11 5 12 20 16 22 26 28 29 32 34 36 36 33 31 31 32 33 32 33 31 29 26 26 23 20 20 18 27 26 24 22 22 22 22 22 22 26 22 14
55 47 29 14 19 11 6 14 23 20 17 26 30 32 34 31 34 35 35 33 32 31 28 25 28 26 24 22 23 21 17 16 14 19 19 18 19 16 16 18 22 24 18 15
70 68 62 59 23 18 11 7 12 21 27 19 19 16 17 18 22 27 32 32 31 30 30 28 27 24 22 21 21 21 20 19 18 18 18 18 19 19 19 20 20 25 21 19
72 73 69 63 59 26 17 10 7 10 18 30 34 27 19 20 15 17 18 28 28 30 28 25 21 26 25 21 20 21 23 22 20 17 14 13 10 8 8 10 13 10 9 9
77 77 76 70 68 57 20 17 11 7 8 14 21 28 33 27 20 17 17 19 18 17 17 17 17 16 16 16 16 14 14 15 15 15 15 17 27 17 12 11 14 20 26 32
83 84 76 79 77 67 39 21 19 13 9 7 11 15 20 26 37 37 36 26 19 22 23 27 31 34 34 33 30 26 23 23 26 26 33 40 24 16 25 29 33 33 34 37
84 86 77 82 72 77 58 36 24 21 16 11 9 8 12 16 20 24 28 36 37 36 35 36 36 36 34 34 33 35 38 39 38 40 38 29 28 29 31 34 32 34 42 45
97 92 83 80 80 69 71 59 34 26 23 19 14 11 10 10 14 16 17 18 26 31 34 36 35 32 31 33 33 33 35 37 40 42 43 34 31 32 35 36 38 39 41 41
99 98 91 84 86 81 68 64 61 45 29 26 23 20 15 13 11 12 13 15 17 22 27 32 36 36 34 33 35 36 36 36 40 44 46 32 31 36 40 40 40 42 46 47
100 98 96 87 83 83 79 71 60 55 45 36 29 26 25 22 20 17 19 19 20 20 24 28 30 38 35 35 35 35 35 37 40 46 57 51 34 38 40 45 45 44 46 48
100 99 98 96 84 83 85 79 74 65 53 44 38 31 27 24 22 20 18 20 20 22 24 31 34 37 39 37 36 32 30 26 32 34 30 36 41 45 48 50 49 48 52 54
82 56 85 98 90 86 88 83 80 76 74 58 50 43 39 37 36 34 32 29 26 25 27 32 38 38 34 38 36 34 26 30 42 42 27 31 43 46 54 56 53 57 57 53
36 48 99 97 80 64 80 86 79 81 84 78 68 62 53 46 42 37 31 28 28 27 28 31 36 39 38 41 38 33 27 29 33 34 27 35 40 48 50 53 55 53 52 53
83 67 99 92 73 82 86 77 72 86 84 81 68 61 55 52 51 53 53 48 41 39 38 37 40 36 37 42 48 41 37 37 36 36 38 40 36 41 49 52 52 53 54 57
25 35 97 99 100 100 98 72 84 88 89 85 76 69 67 70 66 61 58 53 53 54 55 52 51 48 52 58 49 41 42 41 44 48 46 44 46 50 52 53 56 58 65 74
5 15 23 74 99 98 96 96 85 91 85 81 81 72 59 62 62 66 65 62 58 58 58 57 55 54 60 56 45 35 42 48 50 48 49 49 52 54 54 52 55 64 76 71
3 6 66 100 98 98 99 99 95 87 85 84 96 83 63 56 55 53 54 57 59 58 59 58 55 56 57 51 31 44 45 42 42 45 48 47 43 48 53 58 61 61 59 58
7 6 25 93 98 98 98 98 98 96 95 100 98 87 82 73 64 60 61 64 68 64 62 59 62 59 53 30 40 42 38 40 42 43 42 37 37 47 54 58 59 57 52 51
10 11 9 28 76 99 95 97 98 98 98 100 100 97 92 76 70 64 69 71 69 67 61 61 58 38 29 34 38 34 37 40 42 44 39 38 41 49 54 53 53 50 49 53
16 16 17 14 62 81 98 98 98 95 84 94 100 95 79 79 88 76 74 76 75 74 67 71 62 34 29 34 29 30 36 38 42 40 35 35 41 48 52 54 53 49 49 58
31 30 26 27 95 99 90 75 69 64 91 95 97 64 53 82 98 94 88 88 88 78 82 88 66 31 34 32 35 37 38 39 45 44 38 36 39 45 49 50 51 52 65 75
65 57 96 55 70 98 95 73 66 87 89 86 62 54 70 87 100 100 96 95 96 91 85 71 39 44 40 36 40 42 40 41 46 48 48 46 46 50 54 58 63 68 63 60
95 82 75 55 49 47 65 63 60 56 56 60 60 76 77 81 99 99 96 98 98 94 82 42 38 42 42 34 40 43 45 48 51 53 55 54 53 55 58 59 57 60 73 75
96 89 94 65 15 15 16 42 64 67 68 68 75 86 86 84 99 96 96 95 94 76 48 38 43 40 41 42 45 51 55 55 58 61 62 61 62 61 59 64 81 85 75 56
94 96 67 35 40 26 18 19 29 40 44 76 98 98 97 96 97 91 86 89 68 54 46 47 48 48 51 53 54 61 64 65 68 68 70 70 72 77 86 86 69 38 15 12
100 79 58 55 50 53 34 35 42 84 99 99 100 94 90 84 95 94 88 68 52 58 56 53 58 58 63 63 65 70 73 74 75 77 77 80 86 81 58 21 13 13 14 17
Wind_Speed
12 13 14 14 16 17 15 14 14 12 10 11 12 14 13 12 12 10 9 9 7 6 5 8 7 9 6 7 9 8 5 8 11 11 8 9 10 9 9 3 2 4 2 8
11 11 12 13 13 14 13 10 12 10 8 8 10 11 10 10 7 6 6 6 4 4 5 5 7 8 9 5 5 4 5 6 8 4 4 9 11 13 13 13 10 10 3 5
11 10 11 11 12 11 12 10 8 8 8 8 6 5 6 6 6 6 5 6 6 4 4 6 4 6 4 5 4 4 4 5 4 3 5 5 5 5 9 14 9 10 19 21
12 11 9 11 11 10 9 9 9 8 7 6 5 5 4 5 5 5 4 4 4 4 3 4 6 6 4 2 1 0 1 1 3 4 6 8 10 12 14 18 20 15 19 28
15 14 14 12 10 9 7 6 6 6 7 6 6 5 4 4 4 4 4 4 3 2 3 3 3 1 1 1 2 3 4 4 4 6 9 11 14 15 19 22 24 28 27 27
19 19 17 14 10 8 6 4 5 4 4 4 5 5 5 4 4 3 3 3 2 2 1 1 2 2 3 3 4 4 3 3 4 3 5 10 14 11 15 18 14 14 18 18
18 16 12 11 9 8 6 4 3 3 3 2 2 2 3 4 4 3 3 3 2 2 1 1 2 3 5 6 6 6 6 5 4 5 7 2 3 4 8 12 7 12 14 8
17 13 12 10 9 9 7 7 5 4 4 4 3 2 1 1 1 2 2 1 1 2 3 4 3 3 3 2 4 5 6 5 3 2 4 12 12 7 3 9 12 8 2 7
18 15 14 12 9 10 8 7 7 7 6 5 3 3 3 3 3 3 3 3 4 4 4 3 1 1 3 2 3 2 2 4 5 3 2 4 4 5 10 8 2 2 9 18
20 20 16 15 13 12 11 10 9 9 9 9 8 7 6 6 5 6 6 6 6 6 6 5 3 4 4 3 3 2 3 5 10 10 8 10 14 12 7 2 5 21 26 28
25 24 20 17 17 16 14 12 12 11 11 12 12 12 11 11 10 9 8 8 8 8 6 4 4 5 5 6 7 5 5 5 7 7 7 6 4 6 8 18 25 29 33 31
28 28 22 19 17 17 17 16 16 14 14 12 11 10 9 9 10 11 11 10 9 6 5 5 4 7 8 10 8 12 11 12 11 11 9 14 18 24 29 25 32 32 29 27
28 25 21 21 21 20 19 18 17 18 18 17 19 18 18 17 18 18 18 17 17 17 16 17 16 16 16 16 15 17 23 23 26 24 25 26 24 27 30 34 33 29 32 35
31 26 28 25 24 25 24 21 20 19 19 20 20 20 18 17 16 15 14 15 16 18 19 20 21 21 19 22 22 23 26 30 30 33 27 28 26 28 29 30 31 34 39 41
29 31 27 25 26 26 23 20 21 19 19 15 11 9 9 10 13 18 21 21 20 21 22 23 25 23 25 29 31 37 29 29 32 35 27 27 30 32 33 35 37 38 39 37
33 34 29 25 24 23 26 22 20 18 18 21 23 21 22 22 23 24 26 26 27 26 28 27 28 29 25 21 34 39 33 26 24 28 26 27 28 32 34 34 35 34 30 28
30 31 28 32 27 26 27 26 21 17 19 20 19 22 23 26 27 26 25 25 24 24 27 29 29 30 28 35 38 30 28 22 20 22 25 26 26 29 30 29 28 24 25 23
31 30 27 25 31 35 29 27 21 22 24 25 15 15 13 11 11 15 18 20 19 22 25 28 26 27 29 33 25 19 17 17 19 21 23 25 27 25 22 20 20 20 20 24
29 31 32 32 27 25 28 25 24 25 27 26 25 19 15 14 17 21 21 20 18 21 24 25 25 31 32 28 19 15 17 19 20 20 21 22 23 20 20 18 18 18 21 24
27 28 32 35 40 34 23 29 26 31 34 39 40 32 21 16 16 19 20 15 12 15 19 18 26 37 26 18 15 17 16 18 17 17 19 21 22 21 20 19 18 20 22 23
23 25 28 33 26 25 22 15 18 24 35 37 43 38 30 27 25 20 15 11 7 8 16 15 18 36 19 12 12 13 14 15 15 14 16 18 18 20 21 22 23 23 22 22
20 21 24 24 20 17 17 22 29 31 26 28 13 6 13 29 29 25 18 19 9 10 14 10 16 29 10 11 12 13 14 15 16 16 17 16 17 19 21 22 22 22 19 20
17 19 16 15 20 20 24 32 33 32 29 22 23 25 22 25 25 20 13 12 13 14 11 16 36 22 19 19 14 13 14 15 17 19 18 17 17 19 20 21 20 19 20 24
18 17 19 18 13 25 38 41 40 38 37 30 27 22 19 23 23 17 9 12 10 9 14 35 30 25 22 15 13 13 14 16 19 21 20 20 20 20 21 21 22 25 29 33
29 22 15 26 38 31 37 48 40 34 29 31 28 24 24 25 16 14 13 9 10 13 27 26 20 15 16 16 16 16 17 20 20 21 20 20 22 22 23 25 29 35 39 41
37 27 27 40 35 38 40 31 30 38 39 32 24 25 16 18 16 16 18 17 25 29 28 23 21 20 20 19 19 19 20 20 19 20 21 23 25 26 28 31 36 39 38 36
42 48 48 43 39 32 34 34 34 21 20 30 24 21 24 22 18 30 33 41 41 33 27 29 27 26 27 23 22 22 19 18 19 20 24 26 29 31 34 34 33 34 32 30
Wind_Direction
349 351 358 6 11 19 29 37 53 52 84 101 99 96 91 88 86 91 88 126 122 110 103 77 86 140 143 116 108 108 96 124 137 176 185 190 204 207 208 215 212 216 228 272
344 346 351 359 9 14 26 40 53 61 63 84 97 99 86 77 83 110 122 125 100 92 74 93 105 116 142 121 103 105 111 127 118 143 217 219 222 228 231 235 247 239 240 258
336 346 348 355 1 8 17 30 43 56 61 76 76 72 68 70 84 94 123 132 131 120 88 67 103 119 127 129 133 133 133 149 135 132 138 142 194 227 239 235 236 250 249 265
319 328 335 345 355 354 9 23 34 46 53 53 61 70 68 65 80 80 95 111 120 127 129 120 121 133 128 105 92 171 215 213 214 234 252 257 258 259 259 254 258 253 273 282
303 312 319 320 323 341 343 3 24 35 43 49 54 60 72 75 71 96 92 110 98 98 81 77 93 138 165 195 206 202 213 230 230 248 250 258 264 257 254 255 257 268 282 288
294 299 307 311 296 295 310 322 340 10 33 42 51 52 54 58 68 82 109 111 108 94 67 18 335 306 292 286 292 297 292 297 323 297 283 295 292 276 256 267 281 286 293 310
287 290 296 304 299 271 272 271 281 310 327 356 38 52 54 54 50 50 47 58 78 62 58 355 302 280 279 281 280 276 273 281 280 281 307 254 284 227 301 304 325 312 311 304
263 285 285 287 299 287 271 271 263 255 266 276 287 285 311 11 20 23 18 9 4 349 348 349 355 350 351 338 294 260 248 252 260 247 250 280 276 262 229 313 314 309 312 304
266 273 277 275 274 284 281 274 272 267 267 263 237 261 272 267 264 280 291 297 294 294 310 323 284 282 311 302 311 307 269 254 236 269 270 268 250 262 299 305 211 238 298 302
254 263 268 271 270 268 273 269 262 264 265 263 261 259 259 262 263 264 273 280 281 276 279 275 265 254 257 247 242 264 287 274 248 248 246 267 277 273 256 284 273 298 304 304
261 259 259 264 266 265 266 271 269 264 260 259 259 261 262 262 262 266 271 279 274 259 252 241 243 235 234 242 249 258 257 251 242 237 242 286 230 250 266 293 300 303 301 302
246 251 255 255 259 259 260 268 272 271 268 262 260 257 257 255 259 260 260 256 258 251 243 245 247 254 263 262 265 263 261 253 257 249 269 288 295 298 296 294 296 298 293 294
248 248 255 239 253 256 258 259 261 265 266 264 262 259 256 256 260 261 261 262 261 262 262 263 262 259 265 261 271 270 276 280 268 277 288 294 287 290 286 291 295 292 293 296
242 235 240 243 242 252 251 255 258 260 264 266 262 260 256 254 255 257 256 256 258 260 261 260 259 262 272 266 266 272 278 282 283 286 294 295 290 289 289 289 290 294 297 300
222 234 240 243 245 235 245 251 260 258 250 256 255 256 258 253 250 255 258 259 263 265 264 265 268 271 274 277 277 276 290 290 284 287 292 288 286 287 290 295 299 301 303 306
229 233 229 233 244 247 240 246 252 252 253 257 263 265 261 260 261 261 259 262 266 266 268 270 271 274 271 272 278 293 296 301 297 294 288 285 286 287 289 294 299 303 304 305
235 237 231 229 237 250 252 255 254 242 252 259 266 271 260 254 256 257 257 257 260 265 269 269 271 275 272 272 277 303 308 299 290 285 286 286 288 291 295 297 298 302 305 307
234 234 220 225 235 240 240 241 253 257 262 261 255 243 229 234 251 253 251 255 258 263 265 269 272 272 265 271 304 303 295 291 285 284 287 295 301 303 298 297 298 301 302 301
233 230 224 225 236 241 251 239 243 254 252 255 256 250 259 247 245 252 256 264 264 266 264 266 269 266 262 290 299 289 281 275 278 286 290 295 299 297 298 299 299 299 298 294
231 229 227 227 229 240 247 237 240 243 245 247 248 249 240 258 252 250 257 263 253 259 267 267 263 272 283 294 274 272 263 265 275 287 292 296 297 293 292 292 293 301 302 293
230 227 226 226 229 243 224 223 231 240 247 252 251 248 250 254 241 232 243 244 236 251 261 245 258 276 294 270 264 266 264 268 272 279 291 294 295 292 291 290 291 294 299 297
226 228 224 221 207 212 226 230 235 242 241 237 227 199 250 241 234 232 240 236 236 242 245 234 256 285 270 287 274 271 268 269 262 274 286 292 295 292 290 289 287 284 288 292
222 212 205 205 204 215 205 216 218 224 223 235 255 255 234 233 226 222 223 214 221 234 237 251 268 274 280 294 280 270 274 271 266 276 286 295 295 294 292 289 286 286 294 297
223 207 207 202 195 212 214 222 230 237 241 249 260 251 231 237 219 211 210 215 212 229 232 258 272 283 282 277 265 275 281 277 278 284 293 300 300 294 290 288 291 296 298 299
218 208 214 223 225 221 223 225 230 233 243 250 246 242 231 223 203 203 206 200 216 226 249 276 287 278 280 284 267 274 292 280 282 290 291 294 292 288 288 291 295 296 297 300
220 215 220 230 229 227 229 230 237 241 245 243 235 218 209 207 206 199 206 215 233 249 269 284 274 280 278 274 262 280 286 278 284 286 289 291 289 286 289 292 295 295 299 302
224 230 231 234 239 242 241 240 237 244 247 234 227 223 226 235 223 223 223 236 257 262 266 280 270 280 281 268 270 277 269 274 278 285 289 288 286 289 296 297 298 300 304 307